Location: Roah Hook
(42.4840°N, 73.7893°W)
Time: 07:25:16
(UTC+00:00)

Envisat - Visible Passes

Search period start: 05 October 2024 00:00
Search period end: 15 October 2024 00:00
Orbit: 762 x 764 km, 98.3° (Epoch: 04 October)

Date Brightness Start Highest point End Pass type
(mag) Time Alt. Az. Time Alt. Az. Time Alt. Az.
05 Oct 3.8 08:13:28 10° NNE 08:16:53 44° N 08:16:53 44° N visible
05 Oct 4.9 09:55:10 10° NW 09:56:41 11° WNW 09:57:02 11° WNW visible
06 Oct 4.8 07:36:11 10° NNE 07:38:51 28° NE 07:38:51 28° NE visible
06 Oct 4.3 09:15:44 10° NNW 09:18:58 23° NW 09:18:58 23° NW visible
07 Oct 5.7 06:59:36 10° NE 07:00:48 14° ENE 07:00:48 14° ENE visible
07 Oct 3.9 08:37:37 10° N 08:40:56 37° NNW 08:40:56 37° NNW visible
08 Oct 4.3 08:00:01 10° NNE 08:02:53 34° NNE 08:02:53 34° NNE visible
08 Oct 4.7 09:40:39 10° NNW 09:43:01 15° NW 09:43:01 15° NW visible
09 Oct 5.3 07:22:54 10° NNE 07:24:50 21° NE 07:24:50 21° NE visible
09 Oct 4.2 09:01:57 10° N 09:04:58 26° NW 09:04:58 26° NW visible
10 Oct 4.1 08:24:02 10° N 08:26:55 34° N 08:26:55 34° N visible
11 Oct 4.8 07:46:35 10° NNE 07:48:51 26° NNE 07:48:51 26° NNE visible
11 Oct 4.6 09:26:35 10° NNW 09:28:59 18° NW 09:28:59 18° NW visible
12 Oct 5.7 07:09:44 10° NE 07:10:47 15° NE 07:10:47 15° NE visible
12 Oct 4.3 08:48:15 10° N 08:50:55 28° NNW 08:50:55 28° NNW visible
13 Oct 4.5 08:10:29 10° NNE 08:12:51 28° NNE 08:12:51 28° NNE visible
13 Oct 4.9 09:51:56 10° NW 09:53:00 12° NW 09:53:00 12° NW visible
14 Oct 5.3 07:33:14 10° NNE 07:34:48 19° NE 07:34:48 19° NE visible
14 Oct 4.5 09:12:40 10° NNW 09:14:56 20° NW 09:14:56 20° NW visible
